Latest Weather Observations for Scotts Peak

IDT60801

Issued at 9:05 pm EST Tuesday 22 July 2014 (issued every 30 minutes, with the page automatically refreshed every 10 minutes)

About weather observations | Map of weather stations | Latest weather observations for TAS | Other Formats
Station Details ID: 097083 Name: SCOTTS PEAK DAM Lat: -43.04 Lon: 146.27 Height: 408.0 m
Data from the previous 72 hours. | See also: Recent months at Scotts Peak
Date/Time
EST
Temp
°C
App
Temp
°C
Dew
Point
Rel
Hum
%
Delta-T
°C
Wind Press
QNH
hPa
Press
MSL
hPa
Rain
since 9 am
mm
Dir
 
Spd
km/h
Gust
km/h
Spd
kts
Gust
kts
22/09:00pm 6.2 3.9 5.6 96 0.3 NNW 7 11 4 6 - - 0.0
22/08:30pm 6.3 3.3 5.9 97 0.2 N 11 13 6 7 - - 0.0
22/08:00pm 6.3 4.6 5.9 97 0.2 N 4 7 2 4 - - 0.0
22/07:30pm 6.4 3.4 6.0 97 0.2 N 11 15 6 8 - - 0.0
22/07:00pm 6.5 3.5 6.1 97 0.2 NNW 11 15 6 8 - - 0.0
22/06:30pm 6.6 4.4 6.0 96 0.3 N 7 9 4 5 - - 0.0
22/06:00pm 6.2 3.5 5.6 96 0.3 N 9 13 5 7 - - 0.0
22/05:30pm 6.5 3.9 5.9 96 0.3 NNW 9 11 5 6 - - 0.0
22/05:00pm 6.6 3.6 6.0 96 0.3 N 11 13 6 7 - - 0.0
22/04:30pm 6.9 4.3 6.0 94 0.4 NW 9 11 5 6 - - 0.0
22/04:00pm 6.9 4.2 5.5 91 0.6 NW 9 9 5 5 - - 0.0
22/03:30pm 7.0 4.7 5.8 92 0.6 NNW 7 9 4 5 - - 0.0
22/03:00pm 7.0 4.2 5.3 89 0.8 NW 9 11 5 6 - - 0.0
22/02:30pm 8.5 6.2 7.3 92 0.6 NNW 9 13 5 7 - - 0.0
22/02:00pm 9.1 7.5 8.6 97 0.2 NNW 7 11 4 6 - - 0.0
22/01:30pm 6.9 4.8 6.8 99 0.0 NW 7 9 4 5 - - 0.0
22/01:00pm 6.6 4.5 6.5 99 0.0 NNW 7 11 4 6 - - 0.0
22/12:30pm 5.9 4.6 5.8 99 0.0 NW 2 7 1 4 - - 0.0
22/12:00pm 6.6 4.7 6.5 99 0.0 NNW 6 9 3 5 - - 0.0
22/11:30am 6.1 4.0 6.0 99 0.0 NNW 6 9 3 5 - - 0.0
22/11:00am 4.7 2.4 4.6 99 0.0 NW 6 9 3 5 - - 0.0
22/10:30am 3.9 1.4 3.8 99 0.0 N 6 7 3 4 - - 0.0
22/10:00am 4.0 2.3 3.9 99 0.0 WNW 2 6 1 3 - - 0.0
22/09:30am 2.9 1.4 2.8 99 0.0 CALM 0 0 0 0 - - 0.0
22/09:00am 3.1 1.6 3.0 99 0.0 CALM 0 6 0 3 - - 0.8
22/08:30am 2.6 0.6 2.5 99 0.0 ESE 2 6 1 3 - - 0.8
22/08:00am 2.2 -0.8 2.1 99 0.0 ESE 7 11 4 6 - - 0.8
22/07:30am 2.5 0.9 2.4 99 0.0 CALM 0 6 0 3 - - 0.8
22/07:00am 2.9 0.0 2.8 99 0.0 N 7 9 4 5 - - 0.8
22/06:30am 2.3 0.3 2.2 99 0.0 ENE 2 6 1 3 - - 0.8
22/06:00am 3.0 0.7 2.9 99 0.0 N 4 7 2 4 - - 0.8
22/05:30am 2.9 0.6 2.8 99 0.0 NE 4 7 2 4 - - 0.4
22/05:00am 3.0 -0.2 2.9 99 0.0 N 9 13 5 7 - - 0.4
22/04:30am 3.1 -0.1 3.0 99 0.0 NNW 9 13 5 7 - - 0.4
22/04:00am 2.8 0.9 2.7 99 0.0 ENE 2 6 1 3 - - 0.4
22/03:30am 2.8 0.9 2.7 99 0.0 NE 2 7 1 4 - - 0.4
22/03:00am 3.2 0.4 3.1 99 0.0 N 7 11 4 6 - - 0.4
22/02:30am 3.1 0.3 3.0 99 0.0 N 7 9 4 5 - - 0.4
22/02:00am 3.1 0.5 3.0 99 0.0 NE 6 9 3 5 - - 0.4
22/01:30am 3.4 1.6 3.3 99 0.0 NW 2 7 1 4 - - 0.2
22/01:00am 3.3 1.8 3.2 99 0.0 CALM 0 0 0 0 - - 0.2
22/12:30am 3.4 2.0 3.3 99 0.0 CALM 0 0 0 0 - - 0.2
22/12:00am 3.4 0.8 3.3 99 0.0 WNW 6 7 3 4 - - 0.2
 
Date/Time
EST
Temp
°C
App
Temp
°C
Dew
Point
Rel
Hum
%
Delta-T
°C
Wind Press
QNH
hPa
Press
MSL
hPa
Rain
since 9 am
mm
Dir
 
Spd
km/h
Gust
km/h
Spd
kts
Gust
kts
21/11:30pm 3.3 0.5 3.2 99 0.0 NW 7 9 4 5 - - 0.2
21/11:00pm 3.2 1.3 3.1 99 0.0 NNW 2 7 1 4 - - 0.2
21/10:30pm 3.0 1.5 2.9 99 0.0 CALM 0 0 0 0 - - 0.2
21/10:00pm 3.5 2.1 3.4 99 0.0 CALM 0 0 0 0 - - 0.0
21/09:30pm 3.7 1.2 3.6 99 0.0 N 6 7 3 4 - - 0.0
21/09:00pm 3.8 2.4 3.5 98 0.1 CALM 0 0 0 0 - - 0.0
21/08:30pm 4.4 3.1 4.3 99 0.0 CALM 0 0 0 0 - - 0.0
21/08:00pm 4.0 1.5 3.7 98 0.1 N 6 6 3 3 - - 0.0
21/07:30pm 4.0 1.3 3.7 98 0.1 E 7 7 4 4 - - 0.0
21/07:00pm 4.6 3.3 4.3 98 0.1 CALM 0 0 0 0 - - 0.0
21/06:30pm 4.0 1.3 3.6 97 0.2 NNW 7 7 4 4 - - 0.0
21/06:00pm 3.8 0.6 3.1 95 0.3 NNW 9 11 5 6 - - 0.0
21/05:30pm 4.3 1.5 3.3 93 0.4 NNW 7 9 4 5 - - 0.0
21/05:00pm 4.9 2.2 3.6 91 0.6 NW 7 7 4 4 - - 0.0
21/04:30pm 5.8 3.2 4.0 88 0.8 NW 7 9 4 5 - - 0.0
21/04:00pm 7.7 5.3 5.2 84 1.1 NW 7 7 4 4 - - 0.0
21/03:30pm 8.5 5.9 6.3 86 1.0 NW 9 11 5 6 - - 0.0
21/03:00pm 7.8 4.7 5.6 86 1.0 NW 11 13 6 7 - - 0.0
21/02:30pm 7.4 4.1 4.7 83 1.2 NW 11 13 6 7 - - 0.0
21/02:00pm 8.1 5.4 5.7 85 1.1 NNW 9 13 5 7 - - 0.0
21/01:30pm 7.6 5.5 6.5 93 0.5 N 7 11 4 6 - - 0.0
21/01:00pm 5.8 3.4 5.1 95 0.3 NW 7 9 4 5 - - 0.0
21/12:30pm 5.9 3.6 5.8 99 0.0 NNW 7 11 4 6 - - 0.0
21/12:00pm 5.1 2.3 5.0 99 0.0 NW 9 13 5 7 - - 0.0
21/11:30am 4.5 2.5 4.4 99 0.0 NNW 4 9 2 5 - - 0.0
21/11:00am 4.0 2.3 3.9 99 0.0 WNW 2 11 1 6 - - 0.0
21/10:30am 3.8 1.3 3.7 99 0.0 E 6 9 3 5 - - 0.0
21/10:00am 3.7 1.0 3.6 99 0.0 N 7 11 4 6 - - 0.0
21/09:30am 2.8 0.1 2.7 99 0.0 NE 6 11 3 6 - - 0.0
21/09:00am 2.9 0.2 2.8 99 0.0 ENE 6 9 3 5 - - 0.6
21/08:30am 2.9 0.2 2.8 99 0.0 ENE 6 7 3 4 - - 0.6
21/08:00am 2.7 0.0 2.6 99 0.0 N 6 9 3 5 - - 0.6
21/07:30am 2.6 -0.3 2.5 99 0.0 N 7 9 4 5 - - 0.6
21/07:00am 2.7 0.0 2.6 99 0.0 NNW 6 9 3 5 - - 0.6
21/06:30am 2.7 0.0 2.6 99 0.0 NNW 6 9 3 5 - - 0.6
21/06:00am 2.0 -0.4 1.9 99 0.0 NE 4 7 2 4 - - 0.6
21/05:30am 2.1 0.4 2.0 99 0.0 CALM 0 0 0 0 - - 0.6
21/05:00am 3.0 0.3 2.9 99 0.0 NW 6 9 3 5 - - 0.4
21/04:30am 2.8 -0.1 2.7 99 0.0 NNW 7 9 4 5 - - 0.4
21/04:00am 2.8 1.2 2.7 99 0.0 CALM 0 6 0 3 - - 0.4
21/03:30am 2.9 1.0 2.8 99 0.0 ENE 2 7 1 4 - - 0.4
21/03:00am 2.9 1.4 2.8 99 0.0 CALM 0 0 0 0 - - 0.4
21/02:30am 2.9 1.4 2.8 99 0.0 CALM 0 0 0 0 - - 0.4
21/02:00am 2.9 1.4 2.8 99 0.0 CALM 0 0 0 0 - - 0.4
21/01:30am 3.2 1.7 3.1 99 0.0 CALM 0 0 0 0 - - 0.0
21/01:00am 3.0 1.1 2.9 99 0.0 NNW 2 7 1 4 - - 0.0
21/12:30am 2.7 -0.2 2.6 99 0.0 NNW 7 9 4 5 - - 0.0
21/12:00am 2.5 -0.4 2.4 99 0.0 NNW 7 9 4 5 - - 0.0
 
Date/Time
EST
Temp
°C
App
Temp
°C
Dew
Point
Rel
Hum
%
Delta-T
°C
Wind Press
QNH
hPa
Press
MSL
hPa
Rain
since 9 am
mm
Dir
 
Spd
km/h
Gust
km/h
Spd
kts
Gust
kts
20/11:30pm 2.8 -0.5 2.5 98 0.1 NNW 9 9 5 5 - - 0.0
20/11:00pm 2.8 -0.5 2.5 98 0.1 NNW 9 9 5 5 - - 0.0
20/10:30pm 3.0 -0.3 2.7 98 0.1 NNW 9 11 5 6 - - 0.0
20/10:00pm 3.1 -0.5 2.8 98 0.1 N 11 13 6 7 - - 0.0
20/09:30pm 3.3 0.1 2.9 97 0.2 NNW 9 9 5 5 - - 0.0
20/09:00pm 3.5 0.7 2.9 96 0.2 NNW 7 11 4 6 - - 0.0
20/08:30pm 3.9 1.1 3.0 94 0.4 N 7 9 4 5 - - 0.0
20/08:00pm 5.1 3.1 4.4 95 0.3 N 4 9 2 5 - - 0.0
20/07:30pm 4.3 1.1 3.1 92 0.5 NNW 9 11 5 6 - - 0.0
20/07:00pm 5.6 3.0 4.1 90 0.7 WNW 7 9 4 5 - - 0.0
20/06:30pm 6.2 3.7 4.7 90 0.7 W 7 9 4 5 - - 0.0
20/06:00pm 5.9 4.3 4.5 91 0.6 N 2 6 1 3 - - 0.0
20/05:30pm 5.6 3.0 4.2 91 0.6 N 7 11 4 6 - - 0.0
20/05:00pm 5.9 2.2 4.2 89 0.7 N 13 15 7 8 - - 0.0
20/04:30pm 6.9 3.6 4.6 85 1.0 NNW 11 13 6 7 - - 0.0
20/04:00pm 8.3 5.1 5.2 81 1.4 NNW 11 15 6 8 - - 0.0
20/03:30pm 8.6 5.1 5.5 81 1.4 N 13 15 7 8 - - 0.0
20/03:00pm 9.4 6.1 6.3 81 1.5 NNW 13 15 7 8 - - 0.0
20/02:30pm 11.0 8.0 7.9 81 1.5 NNW 13 19 7 10 - - 0.0
20/02:00pm 8.6 6.0 4.0 73 2.1 WSW 7 11 4 6 - - 0.0
20/01:30pm 8.3 3.9 4.5 77 1.7 W 17 20 9 11 - - 0.0
20/01:00pm 8.4 3.6 5.7 83 1.3 NW 20 22 11 12 - - 0.0
20/12:30pm 9.1 6.0 7.4 89 0.8 NNW 13 20 7 11 - - 0.0
20/12:00pm 10.3 8.1 9.5 95 0.4 NNW 11 17 6 9 - - 0.0
20/11:30am 7.9 5.3 4.3 78 1.6 W 7 13 4 7 - - 0.0
20/11:00am 7.5 3.1 4.5 81 1.3 W 17 24 9 13 - - 0.0
20/10:30am 7.2 3.7 5.5 89 0.8 NW 13 20 7 11 - - 0.0
20/10:00am 7.0 4.3 5.5 90 0.7 W 9 15 5 8 - - 0.0
20/09:30am 6.7 3.6 5.5 92 0.5 W 11 17 6 9 - - 0.0
20/09:00am 6.4 3.8 6.3 99 0.0 NW 9 13 5 7 - - 1.2
20/08:30am 6.3 3.7 6.2 99 0.0 NNW 9 11 5 6 - - 1.2
20/08:00am 6.2 3.2 6.1 99 0.0 N 11 15 6 8 - - 1.2
20/07:30am 6.2 3.2 6.1 99 0.0 NNW 11 13 6 7 - - 1.0
20/07:00am 6.1 2.7 6.0 99 0.0 NNW 13 19 7 10 - - 0.8
20/06:30am 6.1 2.3 6.0 99 0.0 NNW 15 19 8 10 - - 0.4
20/06:00am 6.0 2.2 5.9 99 0.0 NNW 15 20 8 11 - - 0.2
20/05:30am 6.0 1.8 5.9 99 0.0 NNW 17 19 9 10 - - 0.2
20/05:00am 6.1 2.3 6.0 99 0.0 NNW 15 17 8 9 - - 0.2
20/04:30am 5.8 2.0 5.7 99 0.0 NNW 15 19 8 10 - - 0.2
20/04:00am 5.6 1.7 5.5 99 0.0 NNW 15 19 8 10 - - 0.2
20/03:30am 5.4 0.7 5.3 99 0.0 NNW 19 20 10 11 - - 0.2
20/03:00am 5.6 1.4 5.5 99 0.0 NW 17 20 9 11 - - 0.2
20/02:30am 6.0 1.8 5.9 99 0.0 NNW 17 20 9 11 - - 0.2
20/02:00am 6.2 2.1 6.1 99 0.0 NNW 17 20 9 11 - - 0.2
20/01:30am 6.3 1.8 6.2 99 0.0 NNW 19 20 10 11 - - 0.2
20/01:00am 6.4 2.3 6.3 99 0.0 NNW 17 20 9 11 - - 0.2
20/12:30am 6.1 2.0 6.0 99 0.0 NNW 17 19 9 10 - - 0.2
20/12:00am 6.3 2.6 6.2 99 0.0 NNW 15 19 8 10 - - 0.2
 
Date/Time
EST
Temp
°C
App
Temp
°C
Dew
Point
Rel
Hum
%
Delta-T
°C
Wind Press
QNH
hPa
Press
MSL
hPa
Rain
since 9 am
mm
Dir
 
Spd
km/h
Gust
km/h
Spd
kts
Gust
kts
19/11:30pm 6.2 3.2 5.9 98 0.1 NW 11 15 6 8 - - 0.2
19/11:00pm 6.2 2.1 6.1 99 0.0 WNW 17 19 9 10 - - 0.2
19/10:30pm 6.0 1.5 5.9 99 0.0 NNW 19 22 10 12 - - 0.2
19/10:00pm 6.0 3.0 5.9 99 0.0 NNW 11 15 6 8 - - 0.2
19/09:30pm 6.1 1.9 5.8 98 0.1 NW 17 20 9 11 - - 0.2

Other Formats:

Comma delimited format used in spreadsheet applications
http://www.bom.gov.au/fwo/IDT60801/IDT60801.95958.axf

JavaScript Object Notation format (JSON) in row-major order
http://www.bom.gov.au/fwo/IDT60801/IDT60801.95958.json